North Bennington, VT

8:23 PM EDT on August 25, 2016 (GMT -0400)
Morse State

Weather History for KDDH - June, 2013

Change the Weather History Date:

Monday, June 10, 2013

  Actual Average Record
Temperature  
Mean Temperature 61 °F 62 °F  
Max Temperature 71 °F 74 °F 91 °F (2008)
Min Temperature 50 °F 51 °F 44 °F (2001)
Degree Days  
Heating Degree Days 4 4  
Month to date heating degree days 46 52  
Since 1 June heating degree days 46 52  
Since 1 July heating degree days 6696 7191  
Cooling Degree Days 0 2  
Month to date cooling degree days 22 11  
Year to date cooling degree days 54 25  
Since 1 June cooling degree days 22 11  
Growing Degree Days 10 (Base 50)    
Moisture  
Dew Point 55 °F    
Average Humidity 73    
Maximum Humidity 93    
Minimum Humidity 53    
Precipitation  
Precipitation 0.47 in 0.14 in 0.72 in (2006)
Month to date precipitation 3.28 1.44  
Year to date precipitation 17.75 16.51  
Sea Level Pressure  
Sea Level Pressure 30.09 in    
Wind  
Wind Speed 3 mph (ESE)    
Max Wind Speed 18 mph    
Max Gust Speed 25 mph    
Visibility 8 miles    
Events Rain    
T = Trace of Precipitation, MM = Missing Value Source: NWS Daily Summary

Daily Weather History Graph

Daily Weather History Graph

Search for Another Location

Airport or City:

Trip Planner

Search our weather history database for the weather conditions in past years. The results will help you decide how hot, cold, wet, or windy it might be!

Date:

Astronomy

Jun. 10, 2013 Rise Set
Actual Time 5:13 AM EDT 8:31 PM EDT
Civil Twilight 4:38 AM EDT 9:06 PM EDT
Nautical Twilight 3:53 AM EDT 9:51 PM EDT
Astronomical Twilight 2:58 AM EDT 10:47 PM EDT
Moon 7:02 AM EDT (6/10) 9:53 PM EDT (6/10)
Length of Visible Light 16h 27m
Length of Day
15h 17m
Waxing Crescent, 4% of the Moon is Illuminated
Jun 10
Waxing Crescent
Jun 16
First Quarter
Jun 23
Full
Jun 30
Last Quarter
Jul 8
New

Hourly Weather History & Observations

Time (EDT) Temp. Dew Point Humidity Pressure Visibility Wind Dir Wind Speed Gust Speed Precip Events Conditions
12:54 AM 55.9 °F 53.1 °F 90% 30.20 in 10.0 mi Calm Calm - N/A   Clear
1:54 AM 54.0 °F 52.0 °F 93% 30.19 in 8.0 mi Calm Calm - N/A   Clear
2:54 AM 54.0 °F 52.0 °F 93% 30.18 in 10.0 mi Calm Calm - N/A   Clear
3:54 AM 52.0 °F 48.9 °F 89% 30.19 in 10.0 mi Calm Calm - N/A   Clear
4:54 AM 50.0 °F 48.0 °F 93% 30.18 in 9.0 mi Calm Calm - N/A   Clear
5:54 AM 51.1 °F 48.9 °F 92% 30.18 in 6.0 mi Calm Calm - N/A   Clear
6:54 AM 57.9 °F 52.0 °F 81% 30.17 in 10.0 mi Calm Calm - N/A   Clear
7:54 AM 59.0 °F 54.0 °F 83% 30.17 in 10.0 mi Calm Calm - N/A   Clear
8:54 AM 64.0 °F 57.0 °F 78% 30.17 in 10.0 mi Calm Calm - N/A   Clear
9:54 AM 69.1 °F 55.9 °F 63% 30.16 in 10.0 mi Calm Calm - N/A   Mostly Cloudy
10:54 AM 69.1 °F 52.0 °F 54% 30.16 in 10.0 mi Calm Calm - N/A   Mostly Cloudy
11:54 AM 70.0 °F 53.1 °F 55% 30.16 in 10.0 mi Variable 3.5 mph - N/A   Overcast
12:54 PM 66.0 °F 55.0 °F 68% 30.14 in 8.0 mi Variable 4.6 mph - 0.00 in Rain Light Rain
1:54 PM 63.0 °F 55.9 °F 78% 30.14 in 8.0 mi Calm Calm - 0.04 in Rain Light Rain
2:54 PM 64.9 °F 59.0 °F 81% 30.12 in 10.0 mi Calm Calm - 0.01 in Rain Light Rain
3:54 PM 64.0 °F 57.9 °F 80% 30.09 in 5.0 mi Variable 4.6 mph - 0.01 in Rain Light Rain
4:54 PM 64.0 °F 60.1 °F 87% 30.07 in 4.0 mi Calm Calm - 0.07 in Rain Light Rain
5:54 PM 62.1 °F 59.0 °F 90% 30.04 in 2.5 mi Calm Calm - 0.07 in Rain Light Rain
6:14 PM 62.6 °F 57.2 °F 82% 30.03 in 4.0 mi East 5.8 mph - 0.05 in Rain Light Rain
6:54 PM 62.1 °F 57.0 °F 84% 30.01 in 6.0 mi East 5.8 mph - 0.08 in Rain Light Rain
7:54 PM 62.1 °F 57.0 °F 84% 29.98 in 7.0 mi Calm Calm - 0.03 in Rain Light Rain
8:54 PM 62.1 °F 55.9 °F 80% 29.95 in 7.0 mi Variable 5.8 mph - 0.05 in Rain Light Rain
9:31 PM 62.6 °F 55.4 °F 77% 29.96 in 10.0 mi SE 8.1 mph - 0.01 in   Overcast
9:45 PM 60.8 °F 55.4 °F 82% 29.96 in 10.0 mi Variable 4.6 mph - 0.01 in Rain Light Rain
9:54 PM 62.1 °F 55.9 °F 80% 29.95 in 10.0 mi SE 11.5 mph 18.4 mph 0.01 in   Overcast
10:54 PM 61.0 °F 55.9 °F 83% 29.93 in 3.0 mi ESE 9.2 mph 20.7 mph 0.04 in Rain Rain
11:54 PM 61.0 °F 55.0 °F 81% 29.89 in 9.0 mi SE 11.5 mph 19.6 mph 0.06 in Rain Light Rain